Location: Del Amo
(33.8464°N, 118.2104°W)
Time: 21:09:39
(UTC+00:00)

Courier 1B Rocket - Pass Details

Date: 22 September 2024
Orbit: 920 x 1201 km, 28.3° (Epoch: 13 October)

Event Time Altitude Azimuth Distance (km) Brightness Sun altitude
Rises 02:24:58 0° 266° (W) 3,710 10.2 -8.1°
Reaches altitude 10° 02:28:12 10° 252° (WSW) 2,807 8.6 -8.8°
Maximum altitude 02:33:16 22° 204° (SSW) 2,122 7.0 -9.8°
Drops below altitude 10° 02:38:37 10° 156° (SSE) 2,960 7.2 -10.9°
Enters shadow 02:41:48 - 143° (SE) 3,863 7.7 -11.6°
